CZ-4C DEB, 44614

Orbit data source: Space-Track

CZ-4C DEB, 44614 is space debris in SSO originally from a launch on Tue, 14 Nov 2017 UTC launched from the Taiyaun Space Center, China (TSC). Debris objects in space refer to the collection of defunct objects orbiting the Earth. Examples of debris include non-operational satellites, rocket bodies, and fragments generated from explosions, collisions, or faulty payload assembly.

Loading next visibility...
Identifier
44614, 2017-072E
Orbit
SSO
Last TLE update
17 hours ago
Origin
Manufacturer
Unknown
Mission
Spacecraft
Bus & Motor
Unknown
Mass
Unknown
Launch date (UTC)
2017-11-14 (7 years ago)
Launch vehicle
Unknown
Launch site
Taiyaun Space Center, China (TSC)
Object type
Payload
Rocket body
Debris
Shape & HBR
Unknown
Radar Cross Section
Small (<0.1 m²)

Expand to show TLE details & history

TLE from 17 hours ago
0 CZ-4C DEB
1 44614U 17072E   25128.55690728  .00000398  00000-0  34175-3 0  9999
2 44614  98.7216 243.5820 0229333  42.9606 318.9208 13.80502255375600
Epoch: 2025-05-08T13:21Z
Definitive object data (Epoch: 2025-05-08T13:21:56.788Z)
Latitude
-0.00001°
Longitude
176.46969°
Altitude
839.761 km
Speed
7.496 km/s
True Right ascension
16h 14m 19s
True Declination
0° 00' 00"
Sunlit
Object was in full shadow at TLE epoch
Visualization TLE readout
Latitude
-48.54637°
Longitude
-12.83612°
Altitude
1,147.519 km
Speed
7.195 km/s
Apparent Right ascension
02h 56m 55s
Apparent Declination
-44° 51' 50"
Sunlit
Object is in daylight
Visualization observer readout
Local Sidereal Time
14:15:59
Azimuth
233.409° WSW
Elevation
-80.977°
Doppler factor
1
Orbital elements
Apogee altitude
1,127.588 km
Perigee altitude
791.044 km
Semi-major axis
7,337.453 km
Eccentricity
0.0229333
Inclination
98.7216°
RAAN
243.582°
Arg. of periapsis
42.9606°
True anomaly
317.15614°
Mean anomaly
318.9208°
Eccentric anomaly
318.0423°
Mean motion
3.45323 °/min
BSTAR
0.00034175
Orbital period
104.25 mins
Loading maneuver chart data...
Loading SW <> Apogee altitude chart data...
Loading historical data...
Loading historical data...
Loading historical data...
Loading historical data...
Loading historical data...
Loading historical data...
Loading historical data...
Other satellites on launch #72 in the year 2017 (2017-11-14 UTC)

CZ-4C DEB Visibility forecast

Observer location: undefined°, undefined°

Span
Click to sort rows by Start time (UTC) header in descending order
Start Az.
Max El. time (UTC)
Max El. Az.
Max El.
End time (UTC)
End Az.
8 mins2025-05-09 06:53:12.904Z132.911° SE2025-05-09 06:57:12.904Z75.988° E31.15°2025-05-09 07:01:12.904Z8.186° NNE
6 mins2025-05-09 08:38:12.904Z228.083° WSW2025-05-09 08:40:12.904Z258.066° W21.678°2025-05-09 08:44:12.904Z314.399° NW
9 mins2025-05-09 19:32:12.904Z46.204° ENE2025-05-09 19:36:12.904Z100.037° ESE26.033°2025-05-09 19:41:12.904Z153.777° SSE
9 mins2025-05-09 21:15:12.904Z350.815° N2025-05-09 21:19:12.904Z285.202° WNW34.132°2025-05-09 21:24:12.904Z224.278° SW
|